TimeEST,TemperatureF,Dew PointF,Humidity,Sea Level PressureIn,VisibilityMPH,Wind Direction,Wind SpeedMPH,Gust SpeedMPH,PrecipitationIn,Events,Conditions,WindDirDegrees,DateUTC
12:00 AM,14.0,8.1,77,30.24,2.0,NW,15.0,23.0,0.00,Snow,Light Snow,310,2013-12-25 05:00:00
12:15 AM,12.9,7.0,77,30.24,5.0,NW,12.7,-,0.00,Snow,Light Snow,310,2013-12-25 05:15:00
12:53 AM,12.9,3.9,67,30.35,9.0,NW,19.6,26.5,0.00,,Overcast,320,2013-12-25 05:53:00
1:43 AM,12.0,1.9,64,30.26,10.0,NW,19.6,26.5,N/A,,Scattered Clouds,310,2013-12-25 06:43:00
1:53 AM,10.9,1.9,67,30.37,10.0,NW,10.4,26.5,N/A,,Partly Cloudy,320,2013-12-25 06:53:00
2:13 AM,10.9,1.9,67,30.27,10.0,NW,17.3,27.6,N/A,,Mostly Cloudy,320,2013-12-25 07:13:00
2:53 AM,10.9,1.9,67,30.38,8.0,NW,13.8,26.5,0.00,,Overcast,320,2013-12-25 07:53:00
3:21 AM,10.0,1.9,70,30.28,10.0,NW,12.7,-,N/A,,Overcast,310,2013-12-25 08:21:00
3:34 AM,10.0,3.0,73,30.28,9.0,NW,13.8,-,0.00,,Overcast,310,2013-12-25 08:34:00
3:53 AM,10.0,3.0,73,30.40,8.0,WNW,8.1,-,0.00,,Overcast,300,2013-12-25 08:53:00
4:45 AM,9.0,3.9,80,30.32,4.0,West,6.9,-,0.00,Snow,Light Snow,280,2013-12-25 09:45:00
4:53 AM,9.0,3.9,80,30.43,3.0,West,9.2,-,0.00,Snow,Light Snow,270,2013-12-25 09:53:00
5:00 AM,9.0,3.9,80,30.31,3.0,West,10.4,-,0.00,Snow,Light Snow,280,2013-12-25 10:00:00
5:11 AM,9.0,3.9,80,30.32,2.5,WNW,5.8,-,0.00,Snow,Light Snow,300,2013-12-25 10:11:00
5:28 AM,9.0,3.9,80,30.31,2.5,NW,11.5,-,0.00,Snow,Light Snow,310,2013-12-25 10:28:00
5:41 AM,8.1,3.9,83,30.31,3.0,NW,11.5,-,0.00,Snow,Light Snow,310,2013-12-25 10:41:00
5:53 AM,9.0,3.0,77,30.43,4.0,NW,9.2,-,0.00,Snow,Light Snow,320,2013-12-25 10:53:00
6:26 AM,8.1,1.9,76,30.33,10.0,NW,12.7,21.9,0.00,,Scattered Clouds,310,2013-12-25 11:26:00
6:53 AM,8.1,1.9,76,30.44,10.0,NNW,13.8,21.9,0.00,,Clear,330,2013-12-25 11:53:00
7:53 AM,8.1,1.9,76,30.45,10.0,NNW,9.2,18.4,N/A,,Clear,330,2013-12-25 12:53:00
8:53 AM,10.0,1.9,70,30.49,10.0,NW,5.8,-,0.00,,Clear,320,2013-12-25 13:53:00
9:53 AM,14.0,1.9,59,30.49,10.0,Variable,3.5,-,0.00,,Clear,0,2013-12-25 14:53:00
10:53 AM,16.0,1.0,52,30.48,10.0,NE,5.8,-,N/A,,Clear,50,2013-12-25 15:53:00
11:53 AM,19.0,3.0,50,30.46,10.0,Calm,Calm,-,N/A,,Clear,0,2013-12-25 16:53:00
12:53 PM,19.9,3.0,48,30.44,10.0,Calm,Calm,-,N/A,,Partly Cloudy,0,2013-12-25 17:53:00
1:53 PM,21.0,5.0,50,30.44,10.0,Calm,Calm,-,N/A,,Clear,0,2013-12-25 18:53:00
2:53 PM,21.0,6.1,53,30.43,10.0,ESE,5.8,-,N/A,,Scattered Clouds,120,2013-12-25 19:53:00
3:53 PM,19.9,8.1,60,30.44,10.0,SSE,6.9,-,N/A,,Mostly Cloudy,150,2013-12-25 20:53:00
4:53 PM,18.0,7.0,62,30.45,10.0,South,4.6,-,N/A,,Clear,170,2013-12-25 21:53:00
5:53 PM,18.0,7.0,62,30.44,10.0,SSE,5.8,-,N/A,,Partly Cloudy,150,2013-12-25 22:53:00
6:53 PM,16.0,8.1,71,30.46,10.0,SSE,6.9,-,N/A,,Clear,150,2013-12-25 23:53:00
7:53 PM,17.1,8.1,68,30.43,10.0,SE,9.2,-,N/A,,Mostly Cloudy,140,2013-12-26 00:53:00
8:53 PM,17.1,8.1,68,30.43,10.0,SSE,5.8,-,N/A,,Mostly Cloudy,150,2013-12-26 01:53:00
9:53 PM,18.0,8.1,65,30.41,10.0,SSE,5.8,-,N/A,,Overcast,160,2013-12-26 02:53:00
10:53 PM,18.0,8.1,65,30.39,10.0,South,8.1,-,N/A,,Overcast,170,2013-12-26 03:53:00
11:53 PM,18.0,8.1,65,30.37,10.0,South,10.4,-,N/A,,Clear,170,2013-12-26 04:53:00